Regional Weather Roundup
Issued by NWS Bismarck, ND

Home | Current Version | Previous Version | Text Only | Print | Product List | Glossary On
Versions: 1 2 3 4 5 6 7 8 9 10 11 12 13 14 15 16 17 18 19 20 21 22 23 24 25 26 27 28 29 30 31 32 33 34 35 36 37 38 39 40 41 42 43 44 45 46 47 48 49 50
000
ASUS43 KBIS 241302
RWRBIS

NWR BROADCAST TEXT
NATIONAL WEATHER SERVICE BISMARCK ND
700 AM CST SAT FEB 24 2018

NOTE: "FAIR" INDICATES FEW OR NO CLOUDS BELOW 12,000 FEET WITH NO
SIGNIFICANT WEATHER AND/OR OBSTRUCTIONS TO VISIBILITY.


CITY           SKY/WX    TMP DP  RH WIND       PRES   REMARKS
WILLISTON      FAIR      -6 -11  79 SW3       29.79F
MINOT          FAIR       8  -1  66 S10       29.81F WCI  -6
MINOT AFB      CLOUDY     7  -1  68 S8          N/A  WCI  -5
BISMARCK       FAIR       1  -3  83 E5        29.91F WCI  -9
DICKINSON      CLOUDY     9   3  77 SW9       29.75F WCI  -4
GARRISON         N/A      0  -4  83 S6        29.84F WCI -12
HETTINGER ARPT CLOUDY     8   2  76 S8        29.80S WCI  -4
JAMESTOWN      FAIR      -4  -7  87 SE12      29.96F WCI -22
CARRINGTON     FAIR      10   7  85 SE13      29.93F WCI  -5
HAZEN            N/A      3   0  85 S5        29.88F WCI  -6
LINTON           N/A      1  -4  78 SE10      29.93F WCI -14
MANDAN         FAIR       3  -2  78 S12       29.88F WCI -13
OAKES          HAZE      -8 -11  84 S8        30.04F VSB 3/4 WCI -23
RUGBY          FAIR       5   0  78 S8        29.87F WCI  -8
STANLEY        FAIR       0  -4  85 SW8       29.78F WCI -15
TIOGA          FAIR       0  -4  85 SW7       29.77F WCI -13
WATFORD CITY   FAIR       1  -4  78 CALM      29.78F
$$

CITY           SKY/WX    TMP DP  RH WIND       PRES   REMARKS
GRAND FORKS    FAIR      -3  -6  87 S7        30.02F WCI -16
GRAND FORKS AF FAIR       0  -6  78 S6        30.00F WCI -12
DEVILS LAKE    FAIR       0  -5  79 SE10      29.91F WCI -16
FARGO          CLOUDY    -1  -3  91 S15       30.10S FOG     WCI -21
CANDO          FAIR      -4  -8  84 SE9       29.91F WCI -20
CAVALIER         N/A      1  -2  85 S10G16    29.98F WCI -14
GRAFTON        FAIR       0  -4  85 SE15      30.03F WCI -20
GWINNER          N/A     -8 -11  84 CALM      30.05F
LANGDON        FAIR      -2  -6  84 S10       29.91F WCI -19
ROLLA          FAIR       7   0  72 S8        29.83F WCI  -6
WALHALLA       FAIR       9  -2  61 SE5       29.95F WCI   0
$$

CITY           SKY/WX    TMP DP  RH WIND       PRES   REMARKS
ABERDEEN       CLOUDY    -5 -11  75 CALM      30.05F
MOBRIDGE       CLOUDY     9   4  80 SE10      29.90F WCI  -5
BUFFALO          N/A      9   4  80 W3        29.68F
RAPID CITY     MOCLDY    12   8  84 SE6       29.74F WCI   3
GLASGOW        CLOUDY    -3  -7  82 E9        29.74F WCI -19
SIDNEY         CLEAR     -4  -9  79 S9        29.80F WCI -20
WOLF POINT     PTCLDY   -18 -25  70 CALM      29.79F
GLENDIVE       PTCLDY    -5 -11  75 SW8       29.78F WCI -20
MILES CITY     MOCLDY   -10 -13  86 SW3       29.80S
BAKER          MOCLDY     5   1  83 W7        29.75F WCI  -7
$$

CITY           SKY/WX    TMP DP  RH WIND       PRES   REMARKS
BILLINGS       MOCLDY    13   4  67 SW15      29.77S WCI  -3
GREAT FALLS    PTCLDY    17   7  64 SW22      29.72F WCI   0
$$





USA.gov is the U.S. government's official web portal to all federal, state and local government web resources and services.